STARLINK-2638 (48477 NORAD) Tracking and Keplerian Element Data

This shows tracking and keplerian element data for the satellite.

Feedback or suggestion? Click here.




ElementValue
Catalog48477
NameSTARLINK-2638
Epoch Orbit524
Epoch Day153.89881469
Epoch Year2021
RAAN95.7131
Inclination53.0189
Eccentricity0.0009567
Argument of Perigee170.8802
Mean Anonmoly189.9362
Mean Motion16.43956428
Decay Rate0.3325812
L11 48477U 21040BB 21153.89881469 .33258120 12317-4 10940-2 0 9990
L22 48477 53.0189 95.7131 0009567 170.8802 189.9362 16.43956428 5244

Live tracking and technical data element details for STARLINK-2638 (NORAD 48477). STARLINK-2638 can be tracked NOW for your location showing map with azimuth and elevation plus other details from your city location.

Track the satellite on the map from your city or location and see movement details for azimuth, elevation, latitude, longitude, range, height, and movement on the map or in text.







IsCatalogInMostPopularTable: catalog: 48477, numindb: 31
Update: records affected: 1



GetName: 48477 STARLINK-2638

Hit Count: updated at: Wed, 04 Aug 2021 00:53:30 GMT